Location: Pandora
(40.9481°N, 83.9611°W)
Time: 17:25:01
(UTC-04:00)

ISS - Pass Details

Date: 02 October 2021
Orbit: 417 x 423 km, 51.6° (Epoch: 19 October)

Event Time Altitude Azimuth Distance (km) Brightness Sun altitude
Rises 19:41:18 0° 311° (NW) 2,364 0.9 -5.7°
Reaches altitude 10° 19:43:43 10° 327° (NNW) 1,499 -0.5 -6.1°
Maximum altitude 19:46:24 22° 20° (NNE) 976 -2.1 -6.6°
Drops below altitude 10° 19:49:06 10° 74° (ENE) 1,497 -1.6 -7.2°
Enters shadow 19:49:22 - 76° (ENE) 1,585 -1.5 -7.2°
